www.pogodaiklimat.ru

Погода и климат >> Архив погоды >> Коморские Острова >> Морони


АРХИВ ПОГОДЫ в Морони

Время (UTC), дата Ветер
(напр.,м/с)
 
Видим.   Явления Облачность Т
(С)
Тd
(С)
f
(%)
Тe
(С)
Тes
(С)
Комфортность P
(гПа)
Po
(гПа)
Тmin
(С)
Tmax
(С)
R
(мм)
R24
(мм)
S
(см)
18 12.06 ЮЗ 3 25 км 3/1 600 м
[Cu hum Ci sp]
+26.0 +22.1 79 +34 +34 очень
душно
1018.4 1014.2 +31.5
21 12.06 Ю 5 30 км 3/3 600 м
[Cu Sc]
+25.5 +22.6 84 +34 +34 очень
душно
1017.3 1013.1
00 13.06 Ю 5 30 км 3/3 600 м
[Cu Sc]
+25.2 +22.0 82 +32 +32 очень
душно
1015.2 1011.0
03 13.06 Ю 4 30 км 4/4 600 м
[Cu Sc]
+26.2 +20.2 70 +32 +32 очень
душно
1016.3 1012.1
06 13.06 ЮВ 6 30 км 8/3 600 м
[Cu Sc Ac trans Ci sp]
+28.5 +22.0 68 +37 +38 очень
душно
1018.6 1014.4 +26.0
09 13.06 ЮВ 7 30 км 5/3 600 м
[Cu Sc]
+30.5 +22.6 63 +40 +42 очень
душно
1017.9 1013.8
12 13.06 ЮВ 9 30 км 4/1 600 м
[Cu Sc]
+29.5 +22.3 65 +38 +39 очень
душно
1016.3 1012.1
15 13.06 ЮВ 5 30 км 4/1 600 м
[Cu Sc]
+26.9 +20.7 69 +34 +34 очень
душно
1017.3 1013.1
18 13.06 ЮВ 4 30 км 3/1 600 м
[Cu Sc Ci fib]
+26.1 +19.9 69 +32 +32 очень
душно
1018.5 1014.2 +31.5
21 13.06 З 2 25 км 4/1 600 м
[Cu hum Ac cast Ci sp]
+22.9 +20.0 84 +30 +30 очень
душно
1018.0 1013.8
00 14.06 СВ 3 30 км 4/1 600 м
[Cu Sc Ac trans]
+23.2 +19.9 82 +30 +30 очень
душно
1016.0 1011.8
03 14.06 ЮВ 2 30 км 4/1 600 м
[Cu Sc Ac cast Ci fib]
+24.0 +19.9 78 +29 +29 душно 1016.5 1012.2
06 14.06 ЮЗ 3 30 км 5/1 600 м
[Cu Sc Ac trans Ci fib]
+28.5 +23.0 72 +38 +42 очень
душно
1018.0 1013.8 +23.0
12 14.06 ЮЗ 13 30 км 3/3 600 м
[Cu Sc]
+29.2 +21.6 64 +37 +37 очень
душно
1015.7 1011.5
15 14.06 ЮЗ 11 30 км 6/6 600 м
[Cu Sc]
+26.8 +22.5 77 +35 +35 очень
душно
1017.0 1012.8
18 14.06 Ю 7 20 км в посл. час дождь 9/9 600 м
[Cu Sc]
+23.8 +22.1 90 +31 +31 очень
душно
1018.6 1014.4 +31.0 0.1
21 14.06 Ю 8 30 км 4/1 600 м
[Cu Sc]
+24.2 +21.0 82 +30 +30 очень
душно
1017.4 1013.1
00 15.06 Ю 7 30 км 3/1 600 м
[Cu Sc Ci sp]
+24.0 +21.0 83 +30 +30 очень
душно
1015.7 1011.4
03 15.06 ЮВ 2 30 км 1/1 600 м
[Cu Sc]
+23.5 +20.9 85 +29 +29 душно 1016.1 1011.8
06 15.06 Ю 8 30 км 3/3 600 м
[Cu Sc]
+27.3 +21.8 72 +35 +36 очень
душно
1018.3 1014.1 +23.0
09 15.06 Ю 8 30 км 8/6 600 м
[Cu Sc]
+28.2 +22.9 73 +38 +38 очень
душно
1017.6 1013.4
12 15.06 30 км н/о +26.6 +22.9 80 +35 +36 очень
душно
1015.8 1011.5
15 15.06 Ю 7 30 км 3/3 600 м
[Cu Sc]
+26.2 +22.2 79 +34 +34 очень
душно
1016.4 1012.1
18 15.06 ЮВ 2 30 км 3/3 600 м
[Cu Sc]
+24.0 +22.3 90 +31 +31 очень
душно
1017.8 1013.6 +30.0
00 16.06 В 3 25 км 1/1 600 м
[Cu med, cong]
+22.1 +21.2 95 +29 +29 очень
душно
1016.3 1012.0
03 16.06 В 3 25 км 1/1 600 м
[Cu med, cong]
+21.4 +19.9 91 +26 +26 душно 1017.0 1012.7
06 16.06 Ю 4 30 км 3/3 600 м
[Cu Sc]
+27.7 +22.4 73 +36 +39 очень
душно
1019.2 1014.9 +23.0
09 16.06 Ю 7 30 км 5/5 600 м
[Cu Sc]
+31.0 +22.9 62 +41 +43 опасность
перегрева
1017.5 1013.7
12 16.06 Ю 4 30 км 4/4 600 м
[Cu Sc]
+29.5 +24.0 72 +41 +44 опасность
перегрева
1016.3 1012.1
15 16.06 ЮВ 2 30 км 3/3 600 м
[Cu Sc]
+26.6 +22.3 77 +35 +35 очень
душно
1017.3 1013.1
18 16.06 ЮВ 6 30 км 1/1 600 м
[Cu med, cong]
+25.5 +22.8 85 +34 +34 очень
душно
1019.0 1014.8 +32.2
21 16.06 В 5 30 км 3/1 600 м
[Cu Sc]
+25.0 +22.1 84 +32 +32 очень
душно
1019.4 1015.1
00 17.06 Ю 3 30 км 3/1 600 м
[Cu Sc]
+24.5 +22.3 88 +32 +32 очень
душно
1017.6 1013.5
03 17.06 В 3 30 км 4/1 600 м
[Cu Sc]
+24.7 +20.8 79 +31 +31 очень
душно
1018.4 1014.0
06 17.06 З 5 30 км 6/1 600 м
[Cu Sc Ac trans]
+27.5 +23.2 77 +37 +39 очень
душно
1019.9 1015.7 +22.5
09 17.06 ЮВ 7 30 км 5/3 600 м
[Cu Sc]
+30.5 +22.0 61 +39 +42 очень
душно
1018.7 1014.5
12 17.06 ЮЗ 6 30 км 8/6 600 м
[Cu Sc Ac trans]
+27.5 +23.2 77 +37 +38 очень
душно
1017.4 1013.2
15 17.06 СВ 1 30 км 3/3 600 м
[Cu Sc]
+27.0 +20.3 67 +33 +33 очень
душно
1017.6 1013.4
18 17.06 В 3 30 км 1/1 600 м
[St]
+25.2 +21.5 80 +32 +32 очень
душно
1018.8 1014.5 +32.2
21 17.06 ЮВ 3 30 км 1/1 600 м
[Cu med, cong]
+24.0 +20.7 82 +30 +30 очень
душно
1019.3 1015.1
00 18.06 ЮВ 2 30 км 1/1 600 м
[Cu med, cong]
+22.0 +20.2 90 +28 +28 душно 1018.2 1013.9
03 18.06 В 2 30 км 1/1 600 м
[Cu med, cong]
+23.0 +20.8 87 +30 +30 очень
душно
1018.2 1013.9
06 18.06 ЮВ 4 30 км 1/1 600 м
[Cu Sc]
+28.5 +22.0 68 +37 +41 очень
душно
1018.9 1014.7 +22.5
09 18.06 ЮВ 6 30 км 4/1 600 м
[Cu Sc]
+31.0 +23.2 63 +41 +46 опасность
перегрева
1017.9 1013.7
12 18.06 ЮЗ 6 30 км 8/6 600 м
[Cu Sc Ac cast]
+29.0 +24.8 78 +41 +42 опасность
перегрева
1016.3 1012.2
15 18.06 ЮВ 3 30 км {ливн. осадки} 4/1 600 м
[Cu Sc Ac cast]
+26.0 +23.1 84 +35 +35 очень
душно
1017.1 1012.8
00 19.06 Ю 3 30 км 4/4 600 м
[Cu Sc]
+23.6 +22.0 91 +30 +30 очень
душно
1017.4 1013.2
03 19.06 ЮВ 3 30 км 9/6 600 м
[Cu Sc Ac trans]
+22.6 +21.7 95 +30 +30 очень
душно
1017.2 1012.9
06 19.06 ЮВ 3 30 км 9/3 600 м
[Cu Sc Ac trans]
+27.5 +21.7 71 +35 +37 очень
душно
1018.3 1014.1 +23.0 3
09 19.06 Ю 5 30 км 9/3 600 м
[Cu Sc Ac trans]
+29.0 +22.5 68 +38 +41 очень
душно
1017.9 1013.7
12 19.06 Ю 6 20 км 9/3 600 м
[Cu Sc Ac cast]
+25.2 +22.5 85 +33 +34 очень
душно
1016.8 1012.5
15 19.06 В 2 30 км 4/1 600 м
[Cu Sc]
+24.8 +22.5 87 +32 +32 очень
душно
1016.6 1012.3

 

Местоположение метеостанции Морони (Коморские Острова): широта -11.53 долгота 43.27 высота над уровнем моря 29 м.

В архиве по умолчанию представлена погода в Морони за последнюю неделю. Архивные данные за месяц целиком и за предыдущие месяцы, начиная с января 2011 года, Вы можете получить, выбрав интересующий диапазон дат из раскрывающегося списка и нажав кнопку "Ввод!".


*Определитесь, кто Вы:
робот инопланетянин человек

Внимание! Время в таблицах - всемирное. Для получения местного времени необходимо прибавить поправку, которая равна 3 ч.

Смотрите также архив погоды в соседних городах и на ближайших метеорологических станциях:

Погода в Дзаудзи (Коморские Острова) (260 км)
Погода в Пембе (Мадагаскар) (339 км)
Погода в Мтваре (Танзания) (366 км)
Погода на Острове Глорьёз (Реюньон) (428 км)
Погода в Лумбо (Мозамбик) (480 км)
Погода в Монтепуезе (Мозамбик) (494 км)
Погода в Махадзанге (Мадагаскар) (567 км)
Погода в Аэропорту Fascene (Мадагаскар) (583 км)
Погода в Нампула (Мозамбик) (587 км)
Погода в Бесалампи (Мадагаскар) (595 км)

Пояснения к столбцам:

Ветер - указаны скорость ветра в м/с - средняя за 10 мин, порывы в срок и между сроками (в фигурных скобках) и направление, откуда дует ветер: С - северный, СВ - северо-восточный, В - восточный, ЮВ - юго-восточный, Ю - южный, ЮЗ - юго-западный, З - западный, СЗ - северо-западный.
Видимость - горизонтальная дальность видимости в метрах или километрах. При видимости от 1 до 10 км при отсутствии осадков обычно наблюдается дымка, при ухудшении видимости до 1 км и менее - туман. В сухую погоду видимость может ухудшаться дымом, пылью или мглою.
Явления - указаны атмосферные явления, наблюдавшиеся в срок или в последний час перед сроком; фигурными скобками обозначены явления, наблюдавшиеся между сроками (за 1-3 часа до срока); квадратными скобками обозначены град или гололедные отложения с указанием их диаметра в мм.
Облачность - указаны через наклонную черту общая и нижняя облачность в баллах и высота нижней границы облаков в метрах; квадратными скобками обозначены формы облаков: Ci - перистые, Cs - перисто-слоистые, Cc - перисто-кучевые, Ac - высококучевые, As - высокослоистые, Sc - слоисто-кучевые, Ns - слоисто-дождевые, Cu - кучевые, Cb - кучево-дождевые. Подробнее классификацию облаков см. в Атласе облаков (PDF).
T - Температура воздуха - температура, измеренная на высоте 2 м над землей.
Td - Температура точки росы - температура, при понижении до которой содержащийся в воздухе водяной пар достигнет насыщения.
f - Относительная влажность воздуха - влажноcть воздуха, измеренная на высоте 2 м над землей.
Te - Эффективная температура - температура, которую ощущает одетый по сезону человек в тени. Характеристика душности погоды. При расчете учитывается влияние влажности воздуха и скорости ветра на теплоощущения человека.
Tes - Эффективная температура на солнце - температура, которую ощущает человек, с поправкой на солнечный нагрев. Характеристика знойности погоды. Зависит от высоты солнца над горизонтом, облачности и скорости ветра. Ночью, в пасмурную погоду, а также при ветре 12 м/с и более поправка равна нулю.
P - Атмосферное давление - приведенное к уровню моря атмосферное давление.
Po - Атмосферное давление - измеренное на уровне метеостанции атмосферное давление.
Tmin - Минимальная температура - минимум температуры воздуха на высоте 2 м над землей.
Tmax - Максимальная температура - максимум температуры воздуха на высоте 2 м над землей.
R - Количество осадков - Количество выпавших осадков за период времени, мм. При наведении курсора мыши на число - период времени, за который выпало указанное количество осадков.
R24 - Количество осадков - Количество выпавших осадков за 24 часа, мм.
S - Снежный покров - Высота снежного покрова, см. При наведении курсора мыши на число - состояние снежного покрова и степень покрытия местности в баллах.